Content
SEND FEEDBACK

Daily
Averages
Monthly
Summary
United States of America

ST. LOUIS - SAINT LOUIS UNIVERSITY, MISSOURI


Home > North America > United States > Missouri
Elevation: 580 feet     Latitude: 38 38N     Longitude: 090 14W

WEATHER
 
SELECT A DAY
Number of Records: 189,140;   Date Range: 1/1/95 - 10/23/14
 
SHARE

PRINT THIS DATA

[ ← Previous Day ]
WEATHER ALMANAC - MAY 22, 2013
[ Next Day → ]
[ °C ]   °F
Weather ElementAverageHighLow
Temperature67.9 °F75.9 °F (2:53 pm)62.1 °F (4:53 am)
Dewpoint57.2 °F62.6 °F (12:36 am)52 °F (10:53 pm)
Humidity70.4 %94 % (12:36 am)49 % (12:53 pm)
Barometer29.76 in29.87 in (10:53 pm)29.68 in (4:53 am)
Wind Speed7.4 mph16.1 mph (4:53 pm)
Wind Gust23 mph (5:53 pm)
Weather ElementAverage
Visibility10 mi
Wind DirectionSSW (211 °)

Weather ElementTotal
Precipitation---
Cooling Degree Days4 (Base 65)
Growing Degree Days19 (Base 50)
Averaged from 29 records on May 22, 2013
WEATHER CONDITIONS BREAKOUT
WIND DIRECTION BREAKOUT
WEATHER BY HOUR - MAY 22, 2013
[ °C ]   °F
Local TimeTemperatureDewpointHumidityBarometerVisibilityWind DirectionWind SpeedGust SpeedPrecipitationEventsConditions
12:36 AM64.4 °F62.6 °F94 %29.73 in10.0 miSE (140°)3.5 mphOvercast
12:53 AM64.9 °F62.1 °F90 %29.74 in10.0 miVariable4.6 mphOvercast
1:15 AM64.4 °F60.8 °F88 %29.74 in10.0 miSouth (180°)5.8 mphOvercast
1:25 AM64.4 °F60.8 °F88 %29.73 in10.0 miSouth (170°)4.6 mphOvercast
1:53 AM64.9 °F61.0 °F87 %29.72 in10.0 miSouth (190°)5.8 mphOvercast
2:53 AM64.9 °F60.1 °F84 %29.70 in10.0 miCalmOvercast
3:53 AM64.9 °F60.1 °F84 %29.70 in10.0 miSSW (210°)4.6 mphOvercast
4:53 AM62.1 °F59.0 °F90 %29.68 in10.0 miSSE (160°)3.5 mphClear
5:53 AM63.0 °F59.0 °F87 %29.70 in10.0 miSouth (190°)5.8 mphOvercast
6:53 AM63.0 °F59.0 °F87 %29.72 in10.0 miSSW (210°)5.8 mphOvercast
7:08 AM64.4 °F59.0 °F83 %29.73 in10.0 miSW (220°)5.8 mphOvercast
7:53 AM64.0 °F59.0 °F84 %29.72 in10.0 miSW (230°)6.9 mphMostly Cloudy
8:22 AM66.2 °F60.8 °F83 %29.74 in10.0 miWSW (250°)8.1 mphMostly Cloudy
8:53 AM68.0 °F59.0 °F73 %29.74 in10.0 miVariable5.8 mphPartly Cloudy
9:53 AM70.0 °F57.9 °F65 %29.75 in10.0 miWSW (240°)6.9 mphClear
10:53 AM73.0 °F57.0 °F57 %29.76 in10.0 miWest (260°)10.4 mph16.1 mphScattered Clouds
11:53 AM73.9 °F54.0 °F50 %29.76 in10.0 miWSW (250°)8.1 mph20.7 mphClear
12:53 PM73.0 °F53.1 °F49 %29.75 in10.0 miWSW (240°)11.5 mph17.3 mphOvercast
1:53 PM73.0 °F55.0 °F53 %29.76 in10.0 miSW (230°)11.5 mph19.6 mphOvercast
2:53 PM75.9 °F55.9 °F50 %29.76 in10.0 miWSW (240°)11.5 mph17.3 mphScattered Clouds
3:53 PM75.0 °F55.9 °F51 %29.76 in10.0 miWest (270°)11.5 mph18.4 mphMostly Cloudy
4:53 PM73.9 °F54.0 °F50 %29.76 in10.0 miWest (270°)16.1 mph21.9 mphScattered Clouds
5:53 PM73.9 °F54.0 °F50 %29.76 in10.0 miWest (280°)11.5 mph23.0 mphMostly Cloudy
6:53 PM72.0 °F54.0 °F53 %29.78 in10.0 miWest (270°)8.1 mphMostly Cloudy
7:53 PM70.0 °F54.0 °F57 %29.80 in10.0 miWNW (290°)10.4 mphOvercast
8:53 PM68.0 °F54.0 °F61 %29.82 in10.0 miWNW (290°)5.8 mphOvercast
9:53 PM66.0 °F53.1 °F63 %29.85 in10.0 miWNW (290°)5.8 mphMostly Cloudy
10:53 PM64.0 °F52.0 °F65 %29.87 in10.0 miWNW (290°)9.2 mphClear
11:53 PM64.0 °F53.1 °F67 %29.87 in10.0 miWest (260°)5.8 mphOvercast
Hourly data recorded from KCPS, located miles away from St. Louis - Saint Louis University, Missouri







STORIES FROM OUR PARTNERS